Regional Weather Roundup
Issued by NWS

Home | Current Version | Previous Version | Graphics & Text | Print | Product List | Glossary On
Versions: 1 2 3 4 5 6 7 8 9 10 11 12 13 14 15 16 17 18 19 20 21 22 23 24 25 26 27 28 29 30 31 32 33 34 35 36 37 38 39 40 41 42 43 44 45 46 47 48 49 50
367
ASUS45 KBOU 240807
RWRCO

WEATHER ROUNDUP FOR COLORADO
NATIONAL WEATHER SERVICE DENVER/BOULDER CO
100 AM MST FRI FEB 24 2017

NOTE: "FAIR" INDICATES FEW OR NO CLOUDS BELOW 12000 FEET WITH NO
SIGNIFICANT WEATHER AND/OR OBSTRUCTIONS TO VISIBILITY.

COZ001>005-013-030-031-240900-
...NORTHWEST COLORADO...

CITY           SKY/WX    TMP DP  RH WIND       PRES   REMARKS
CRAIG          CLOUDY    21  14  74 W9        29.77R WCI  11
HAYDEN         CLOUDY    19  16  86 W5        29.74S WCI  13
MEEKER         CLOUDY    22  16  78 SW5       29.77R WCI  16
MOUNT WERNER   NOT AVBL
STEAMBOAT SPGS CLOUDY    18  15  89 CALM      29.73R
WALDEN         NOT AVBL
$$

COZ006>008-011-240900-
...WEST CENTRAL VALLEYS...

CITY           SKY/WX    TMP DP  RH WIND       PRES   REMARKS
GRAND JUNCTION MOCLDY    26  22  84 E7        29.82R WCI  18
MONTROSE       FAIR      23  11  60 SE8       29.83R WCI  14
EAGLE          FLURRIES  19  15  84 NE6       29.78S WCI  11
RIFLE          FAIR      22  21  96 CALM      29.80S
DELTA          FAIR      26  16  67 N5        29.83R WCI  20
NUCLA          CLOUDY    27  12  54 E6        29.85S WCI  20
$$

COZ017>023-064>068-240900-
...SOUTHWEST COLORADO...

CITY           SKY/WX    TMP DP  RH WIND       PRES   REMARKS
DURANGO        MOCLDY    19  11  70 CALM      29.79S
CORTEZ         CLOUDY    22  15  75 CALM      29.83R
PAGOSA SPRINGS CLOUDY    10   2  69 CALM      29.78S
TELLURIDE      LGT SNOW  12   9  88 CALM      29.76S
WOLF CREEK PAS FAIR       0  -8  71 SW6       29.70R WCI -12
$$

COZ009-010-012-014-032>034-037-058>063-240900-
...CENTRAL COLORADO...

CITY           SKY/WX    TMP DP  RH WIND       PRES   REMARKS
ASPEN          MOCLDY    12   5  73 SW7       29.72R WCI   1
BUENA VISTA    FAIR      18   2  50 W6        29.71R WCI   9
COPPER MTN     CLOUDY     5  -4  66 MISG      29.58S HAZE
BERTHOUD PASS  LGT SNOW  -2 -13  60 NW23G29   29.52S WCI -26
COTTONWOOD PAS MOCLDY    14   0  52 W15G23    29.65R WCI  -1
GUNNISON       FAIR      11   3  70 NE3       29.77R
KREMMLING      CLOUDY    21  18  86 CALM      29.73R
LEADVILLE      MOCLDY    -1  -7  75 NE8       29.64S WCI -15
MONARCH PASS   CLOUDY     1  -4  78 W23G30    29.69S WCI -21
SALIDA         FAIR      20   8  59 SW6       29.80S WCI  12
SUNLIGHT       NOT AVBL
WILKERSON PASS FAIR       3  -2  78 SW10      29.62R WCI -12
$$

COZ069>075-240900-
...SAN LUIS VALLEY/SANGRE DE CRISTO MOUNTAINS...

CITY           SKY/WX    TMP DP  RH WIND       PRES   REMARKS
ALAMOSA        FAIR      17   7  64 W5        29.74R WCI  10
LA VETA PASS   FAIR      10   0  61 SW16G26   29.65S WCI  -7
SAGUACHE       FAIR      12   5  73 NW12      29.75S WCI  -2
$$

COZ035-036-038>040-240900-
...NORTHERN COLORADO FRONT RANGE...

CITY           SKY/WX    TMP DP  RH WIND       PRES   REMARKS
DENVER INTL AP FLURRIES  18  14  84 N9        29.84S WCI   7
DMNS CITY PARK   N/A     19  14  81 W3        29.85S
AURORA         FLURRIES  17  15  91 N7        29.83F WCI   8
FRONT RANGE AP FLURRIES  21  18  86 NW7       29.84S WCI  13
ERIE MUNI ARPT FLURRIES  21  15  79 N5        29.86F WCI  14
BOULDER MUN AP FLURRIES  19  18  93 NW3       29.85S
CENTENNIAL     MOCLDY    14  11  87 N6        29.82S WCI   5
BROOMFIELD     FLURRIES  19  18  93 N5        29.84F WCI  13
FORT COLLINS   FLURRIES  21  14  74 NE10      29.87S WCI  10
LONGMONT       CLOUDY    20  15  81 CALM      29.89S
$$

COZ041-046-047-076>085-087-088-240900-
...PIKES PEAK/PALMER DIVIDE AND SOUTHERN FOOTHILLS...

CITY           SKY/WX    TMP DP  RH WIND       PRES   REMARKS
COLO. SPRINGS  FAIR      17   6  62 N21       29.73S WCI   0
A. F. ACADEMY  FAIR      14   7  75 N20       29.72F WCI  -4
SCHRIEVER AFB  FAIR      15   8  75 N16G24    29.73F WCI  -1
ELLICOTT       FAIR     N/A N/A N/A N21         N/A
FALCON         FAIR      13   7  78 N21G26    29.71F WCI  -5
FORT CARSON    FAIR      16   7  69 NW9       29.75R WCI   4
LIMON          FLURRIES  18  15  88 NW20G28   29.79S WCI   2
MONUMENT HILL  FLURRIES  10   9  92 NW10      29.77S WCI  -3
TRINIDAD       FAIR      21  15  78 NE7       29.78S WCI  12
$$

COZ042>045-048>051-090-091-240900-
...NORTHEAST COLORADO...

CITY           SKY/WX    TMP DP  RH WIND       PRES   REMARKS
GREELEY ARPT   FLURRIES  21  17  84 NW7       29.89S WCI  12
AKRON          LGT SNOW  18  15  88 N10       29.82S FOG     WCI   6
BURLINGTON     MOCLDY    22  18  85 NW17G29   29.79R WCI   8
WRAY           NOT AVBL
STERLING       LGT SNOW  23  21  93 N12       29.86S WCI  12
HOLYOKE        LGT SNOW  25  21  86 N12G17    29.84S WCI  14
FORT MORGAN    LGT SNOW  21  18  91 NW7       29.87R WCI  12
$$

COZ086-089-092>099-240900-
...SOUTHEAST COLORADO...

CITY           SKY/WX    TMP DP  RH WIND       PRES   REMARKS
PUEBLO         FAIR      21   9  59 N5        29.81S WCI  15
LA JUNTA       FAIR      21  12  68 NW5       29.84R WCI  15
LAMAR          CLOUDY    27  15  61 N13       29.83R WCI  16
SPRINGFIELD      N/A     22  17  81 NW20      29.79R WCI   7
$$




USA.gov is the U.S. government's official web portal to all federal, state and local government web resources and services.